Location: Newark
(43.0400°N, 13.0400°E)
Time: 05:28:10
(UTC+00:00)

Envisat - Visible Passes

Search period start: 23 September 2020 00:00
Search period end: 03 October 2020 00:00
Orbit: 764 x 766 km, 98.1° (Epoch: 22 September)

Date Brightness Start Highest point End Pass type
(mag) Time Alt. Az. Time Alt. Az. Time Alt. Az.
23 Sep 6.2 17:41:48 10° SW 17:44:56 16° W 17:48:04 10° NW visible
24 Sep 6.0 04:09:19 10° NE 04:13:00 20° E 04:16:40 10° SE visible
26 Sep 6.0 17:29:42 10° SW 17:33:27 21° W 17:37:13 10° NW visible
27 Sep 6.2 03:58:29 10° NE 04:01:32 16° E 04:04:33 10° SE visible
28 Sep 6.6 17:57:31 10° WSW 17:59:11 11° W 18:00:52 10° WNW visible
29 Sep 5.5 04:22:54 10° NE 04:27:13 27° E 04:31:30 10° SSE visible
29 Sep 5.7 17:17:48 10° SSW 17:21:59 26° W 17:26:13 10° NW visible
30 Sep 6.4 03:48:00 10° ENE 03:50:02 12° E 03:52:03 10° ESE visible
01 Oct 6.3 17:44:51 10° SW 17:47:41 15° W 17:50:32 10° NW visible
02 Oct 5.9 04:11:53 10° NE 04:15:46 22° E 04:19:37 10° SE visible
